User: anonymous   Login
Location: Unspecified
(0.0000°N, 0.0000°E)
Time: 00:04:45
(UTC+00:00)
Language:

YUBELEINY 2 - Orbit

View from above orbital plane
View from above orbital plane
View from above satellite
View from above satellite

Ground track
Ground track

The orbit data is extracted from the following two-line orbital elements,

1 38735U 12041C   17172.88010994 +.00000004 +00000-0 -42903-4 0  9998
2 38735 082.4760 321.2568 0016865 021.6458 338.5331 12.42574598222250
Epoch (UTC): 21 June 2017 21:07:21
Eccentricity: 0.0016865
inclination: 82.4760°
perigee height: 1482 km
apogee height: 1509 km
right ascension of ascending node: 321.2568°
argument of perigee: 21.6458°
revolutions per day: 12.42574598
mean anomaly at epoch: 338.5331°
orbit number at epoch: 22225

The dashed part of the orbit path shows where the satellite is in the earth's shadow,  

DLR